ANZ127L NZNS-NZHK

Flight info

Callsign ANZ127L
Flight time 0h 42m
Altitude 16000
Route IDNIM2P CONOR DCT IGNOK IGNOK1L
Aircraft DH8C/M-SDFGR/S

Departure

Time 2026-04-13 23:38
Airport Nelson Airport (NZNS)

Arrival

Time 2026-04-14 00:20
Airport Hokitika Airfield (NZHK)
Time Latitude Longitude Altitude Speed Heading
2026-04-13 23:18 -41.29905 173.22432 28 ft 0 kts 220°
2026-04-13 23:34 -41.29912 173.22417 28 ft 0 kts 268°
2026-04-13 23:34 -41.29890 173.22420 27 ft 4 kts 77°
2026-04-13 23:35 -41.29848 173.22451 28 ft 14 kts 32°
2026-04-13 23:35 -41.29761 173.22520 28 ft 15 kts 21°
2026-04-13 23:35 -41.29669 173.22568 28 ft 13 kts 30°
2026-04-13 23:35 -41.29598 173.22648 28 ft 14 kts 43°
2026-04-13 23:36 -41.29569 173.22770 28 ft 18 kts 59°
2026-04-13 23:36 -41.29463 173.22885 28 ft 21 kts 41°
2026-04-13 23:36 -41.29348 173.23015 28 ft 14 kts 28°
2026-04-13 23:36 -41.29259 173.22973 28 ft 15 kts 326°
2026-04-13 23:37 -41.29287 173.22871 28 ft 15 kts 221°
2026-04-13 23:37 -41.29366 173.22779 28 ft 37 kts 221°
2026-04-13 23:37 -41.29753 173.22337 28 ft 103 kts 220°
2026-04-13 23:37 -41.30623 173.21314 144 ft 139 kts 221°
2026-04-13 23:38 -41.31394 173.20467 511 ft 149 kts 220°
2026-04-13 23:38 -41.32244 173.19568 861 ft 162 kts 214°
2026-04-13 23:38 -41.33178 173.18672 1246 ft 176 kts 222°
2026-04-13 23:38 -41.33801 173.17866 1202 ft 199 kts 229°
2026-04-13 23:39 -41.34766 173.16527 1728 ft 194 kts 225°
2026-04-13 23:39 -41.35703 173.15379 2606 ft 174 kts 238°
2026-04-13 23:39 -41.36202 173.14008 3334 ft 165 kts 249°
2026-04-13 23:39 -41.36759 173.12612 3773 ft 174 kts 242°
2026-04-13 23:40 -41.37564 173.10818 4647 ft 165 kts 244°
2026-04-13 23:40 -41.37935 173.09913 5062 ft 165 kts 245°
2026-04-13 23:40 -41.38678 173.08167 5885 ft 164 kts 244°
2026-04-13 23:40 -41.39049 173.07296 6276 ft 163 kts 245°
2026-04-13 23:41 -41.39602 173.05966 6809 ft 165 kts 245°
2026-04-13 23:41 -41.40371 173.04179 7548 ft 168 kts 245°
2026-04-13 23:41 -41.40749 173.03277 7912 ft 168 kts 246°
2026-04-13 23:41 -41.41324 173.01908 8470 ft 171 kts 246°
2026-04-13 23:42 -41.41915 173.00521 9023 ft 173 kts 246°
2026-04-13 23:42 -41.42465 172.99099 9587 ft 172 kts 259°
2026-04-13 23:42 -41.42524 172.97525 10046 ft 172 kts 270°
2026-04-13 23:42 -41.42707 172.95942 10573 ft 173 kts 263°
2026-04-13 23:43 -41.42928 172.94381 11106 ft 174 kts 265°
2026-04-13 23:43 -41.43084 172.92782 11687 ft 175 kts 268°
2026-04-13 23:43 -41.43252 172.91198 12208 ft 176 kts 266°
2026-04-13 23:43 -41.43435 172.89528 12295 ft 194 kts 263°
2026-04-13 23:44 -41.43630 172.87693 12709 ft 200 kts 263°
2026-04-13 23:44 -41.43822 172.85859 13560 ft 200 kts 265°
2026-04-13 23:44 -41.44016 172.84148 14483 ft 177 kts 270°
2026-04-13 23:44 -41.44153 172.82502 14999 ft 182 kts 270°
2026-04-13 23:45 -41.44333 172.80832 15531 ft 182 kts 268°
2026-04-13 23:45 -41.44519 172.79177 15956 ft 189 kts 270°
2026-04-13 23:45 -41.44696 172.77335 16008 ft 211 kts 270°
2026-04-13 23:45 -41.44950 172.74607 16137 ft 229 kts 270°
2026-04-13 23:46 -41.45088 172.73205 16367 ft 230 kts 270°
2026-04-13 23:46 -41.45293 172.70948 15966 ft 255 kts 268°
2026-04-13 23:46 -41.45540 172.68616 16193 ft 254 kts 268°
2026-04-13 23:46 -41.45810 172.66334 16725 ft 243 kts 268°
2026-04-13 23:47 -41.46287 172.64106 16633 ft 265 kts 252°
2026-04-13 23:47 -41.47464 172.62024 16295 ft 297 kts 229°
2026-04-13 23:47 -41.49115 172.60384 16272 ft 301 kts 225°
2026-04-13 23:47 -41.50720 172.58561 16087 ft 300 kts 232°
2026-04-13 23:48 -41.52179 172.56648 16056 ft 286 kts 232°
2026-04-13 23:48 -41.53621 172.54862 16107 ft 275 kts 230°
2026-04-13 23:48 -41.55054 172.53192 16018 ft 271 kts 230°
2026-04-13 23:48 -41.56483 172.51551 15928 ft 264 kts 229°
2026-04-13 23:49 -41.57840 172.49968 15902 ft 258 kts 231°
2026-04-13 23:49 -41.59163 172.48372 15919 ft 253 kts 232°
2026-04-13 23:49 -41.60434 172.46844 16005 ft 246 kts 231°
2026-04-13 23:49 -41.61699 172.45327 15990 ft 244 kts 232°
2026-04-13 23:50 -41.62966 172.43801 15938 ft 246 kts 231°
2026-04-13 23:50 -41.64247 172.42286 15878 ft 245 kts 232°
2026-04-13 23:50 -41.65503 172.40741 15847 ft 246 kts 232°
2026-04-13 23:50 -41.66781 172.39215 15798 ft 247 kts 231°
2026-04-13 23:51 -41.68059 172.37698 15732 ft 245 kts 232°
2026-04-13 23:51 -41.69311 172.36159 15672 ft 244 kts 232°
2026-04-13 23:51 -41.70572 172.34656 15663 ft 242 kts 231°
2026-04-13 23:51 -41.71821 172.33158 15661 ft 240 kts 232°
2026-04-13 23:52 -41.73033 172.31683 15662 ft 238 kts 232°
2026-04-13 23:52 -41.74268 172.30200 15656 ft 238 kts 231°
2026-04-13 23:52 -41.75494 172.28724 15655 ft 235 kts 232°
2026-04-13 23:52 -41.76707 172.27258 15650 ft 235 kts 232°
2026-04-13 23:53 -41.77924 172.25788 15643 ft 235 kts 232°
2026-04-13 23:53 -41.79138 172.24314 15657 ft 236 kts 232°
2026-04-13 23:53 -41.80364 172.22840 15656 ft 237 kts 232°
2026-04-13 23:53 -41.81588 172.21361 15648 ft 236 kts 232°
2026-04-13 23:54 -41.82802 172.19874 15647 ft 236 kts 232°
2026-04-13 23:54 -41.84007 172.18420 15646 ft 237 kts 231°
2026-04-13 23:54 -41.85229 172.16944 15642 ft 236 kts 232°
2026-04-13 23:54 -41.86448 172.15471 15637 ft 235 kts 230°
2026-04-13 23:55 -41.87656 172.14033 15639 ft 228 kts 233°
2026-04-13 23:55 -41.88838 172.12606 15639 ft 230 kts 232°
2026-04-13 23:55 -41.89998 172.11124 15638 ft 231 kts 232°
2026-04-13 23:55 -41.91216 172.09698 15640 ft 232 kts 231°
2026-04-13 23:56 -41.92403 172.08240 15643 ft 230 kts 233°
2026-04-13 23:56 -41.93595 172.06809 15656 ft 229 kts 231°
2026-04-13 23:56 -41.94761 172.05365 15643 ft 228 kts 233°
2026-04-13 23:56 -41.95943 172.03915 15647 ft 231 kts 232°
2026-04-13 23:57 -41.97118 172.02480 15637 ft 233 kts 231°
2026-04-13 23:57 -41.98319 172.01019 15648 ft 233 kts 231°
2026-04-13 23:57 -41.99528 171.99555 15646 ft 234 kts 230°
2026-04-13 23:57 -42.00731 171.98078 15640 ft 234 kts 232°
2026-04-13 23:58 -42.01927 171.96589 15642 ft 235 kts 231°
2026-04-13 23:58 -42.03151 171.95126 15646 ft 235 kts 231°
2026-04-13 23:58 -42.04355 171.93641 15650 ft 235 kts 231°
2026-04-13 23:58 -42.05563 171.92158 15652 ft 236 kts 230°
2026-04-13 23:59 -42.06785 171.90686 15648 ft 235 kts 231°
2026-04-13 23:59 -42.07971 171.89210 15638 ft 235 kts 231°
2026-04-13 23:59 -42.09177 171.87736 15647 ft 235 kts 231°
2026-04-13 23:59 -42.10386 171.86255 15638 ft 234 kts 231°
2026-04-14 00:00 -42.11586 171.84776 15635 ft 234 kts 231°
2026-04-14 00:00 -42.12797 171.83298 15635 ft 235 kts 231°
2026-04-14 00:00 -42.14004 171.81814 15634 ft 235 kts 231°
2026-04-14 00:00 -42.15208 171.80329 15639 ft 235 kts 231°
2026-04-14 00:01 -42.16419 171.78850 15633 ft 235 kts 231°
2026-04-14 00:01 -42.17623 171.77368 15625 ft 235 kts 231°
2026-04-14 00:01 -42.18823 171.75886 15634 ft 234 kts 231°
2026-04-14 00:01 -42.20025 171.74405 15633 ft 234 kts 231°
2026-04-14 00:02 -42.21232 171.72930 15632 ft 234 kts 231°
2026-04-14 00:02 -42.22412 171.71464 15633 ft 234 kts 231°
2026-04-14 00:02 -42.23615 171.69976 15629 ft 235 kts 231°
2026-04-14 00:02 -42.24823 171.68492 15627 ft 235 kts 231°
2026-04-14 00:03 -42.26025 171.67005 15624 ft 235 kts 231°
2026-04-14 00:03 -42.27228 171.65517 15636 ft 234 kts 231°
2026-04-14 00:03 -42.28434 171.64031 15631 ft 235 kts 231°
2026-04-14 00:03 -42.29635 171.62539 15627 ft 235 kts 231°
2026-04-14 00:04 -42.30842 171.61053 15639 ft 235 kts 231°
2026-04-14 00:04 -42.32043 171.59565 15636 ft 235 kts 231°
2026-04-14 00:04 -42.33246 171.58066 15632 ft 235 kts 231°
2026-04-14 00:04 -42.34456 171.56578 15631 ft 235 kts 231°
2026-04-14 00:05 -42.35644 171.55096 15628 ft 235 kts 231°
2026-04-14 00:05 -42.36852 171.53598 15627 ft 236 kts 231°
2026-04-14 00:05 -42.38060 171.52105 15628 ft 236 kts 231°
2026-04-14 00:05 -42.39256 171.50593 15633 ft 234 kts 235°
2026-04-14 00:06 -42.40035 171.48766 15650 ft 221 kts 256°
2026-04-14 00:06 -42.40698 171.46863 15624 ft 226 kts 247°
2026-04-14 00:06 -42.41511 171.45036 15631 ft 227 kts 247°
2026-04-14 00:06 -42.42294 171.43188 15635 ft 226 kts 249°
2026-04-14 00:07 -42.43026 171.41311 15642 ft 225 kts 249°
2026-04-14 00:07 -42.43791 171.39453 15642 ft 226 kts 248°
2026-04-14 00:07 -42.44535 171.37586 15646 ft 225 kts 250°
2026-04-14 00:07 -42.45256 171.35728 15642 ft 226 kts 249°
2026-04-14 00:08 -42.46012 171.33862 15643 ft 226 kts 248°
2026-04-14 00:08 -42.46761 171.31995 15640 ft 225 kts 249°
2026-04-14 00:08 -42.47497 171.30121 15643 ft 226 kts 249°
2026-04-14 00:08 -42.48249 171.28247 15642 ft 226 kts 249°
2026-04-14 00:09 -42.49002 171.26370 15634 ft 227 kts 249°
2026-04-14 00:09 -42.49748 171.24480 15625 ft 228 kts 249°
2026-04-14 00:09 -42.50502 171.22592 15577 ft 230 kts 249°
2026-04-14 00:09 -42.51279 171.20603 15157 ft 246 kts 249°
2026-04-14 00:10 -42.52114 171.18526 14790 ft 255 kts 248°
2026-04-14 00:10 -42.52950 171.16415 14450 ft 261 kts 249°
2026-04-14 00:10 -42.53804 171.14224 14114 ft 264 kts 248°
2026-04-14 00:10 -42.54663 171.12059 13772 ft 258 kts 248°
2026-04-14 00:11 -42.55617 171.10004 13386 ft 257 kts 243°
2026-04-14 00:11 -42.56599 171.07992 12967 ft 254 kts 243°
2026-04-14 00:11 -42.57570 171.05994 12534 ft 253 kts 243°
2026-04-14 00:11 -42.58529 171.04010 12102 ft 251 kts 244°
2026-04-14 00:12 -42.59471 171.02022 11666 ft 250 kts 244°
2026-04-14 00:12 -42.60404 171.00073 11235 ft 249 kts 243°
2026-04-14 00:12 -42.61348 170.98111 10807 ft 248 kts 243°
2026-04-14 00:12 -42.62265 170.96186 10663 ft 237 kts 243°
2026-04-14 00:13 -42.63144 170.94370 10611 ft 224 kts 244°
2026-04-14 00:13 -42.63963 170.92649 10596 ft 212 kts 244°
2026-04-14 00:13 -42.64746 170.91011 10584 ft 202 kts 244°
2026-04-14 00:13 -42.65499 170.89444 10563 ft 194 kts 245°
2026-04-14 00:14 -42.66226 170.87913 10458 ft 193 kts 244°
2026-04-14 00:14 -42.66969 170.86384 10299 ft 194 kts 245°
2026-04-14 00:14 -42.67712 170.84753 9760 ft 211 kts 245°
2026-04-14 00:14 -42.68518 170.83046 9280 ft 222 kts 243°
2026-04-14 00:15 -42.69388 170.81242 8787 ft 228 kts 244°
2026-04-14 00:15 -42.70232 170.79437 8345 ft 231 kts 243°
2026-04-14 00:15 -42.71109 170.77601 7904 ft 233 kts 243°
2026-04-14 00:15 -42.72047 170.75793 7447 ft 238 kts 231°
2026-04-14 00:16 -42.73454 170.74534 6956 ft 250 kts 205°
2026-04-14 00:16 -42.75200 170.74222 6478 ft 259 kts 179°
2026-04-14 00:16 -42.76931 170.74958 6010 ft 265 kts 153°
2026-04-14 00:16 -42.78309 170.76619 5515 ft 267 kts 127°
2026-04-14 00:17 -42.79111 170.78870 5023 ft 264 kts 103°
2026-04-14 00:17 -42.79179 170.81287 4548 ft 254 kts 78°
2026-04-14 00:17 -42.78547 170.83372 4007 ft 227 kts 52°
2026-04-14 00:17 -42.77588 170.84974 3472 ft 211 kts 50°
2026-04-14 00:18 -42.76772 170.86584 2916 ft 204 kts 56°
2026-04-14 00:18 -42.76057 170.88214 2351 ft 197 kts 55°
2026-04-14 00:18 -42.75322 170.89749 1768 ft 190 kts 54°
2026-04-14 00:18 -42.74600 170.91210 1282 ft 181 kts 56°
2026-04-14 00:19 -42.73958 170.92585 1073 ft 162 kts 56°
2026-04-14 00:19 -42.73354 170.93824 718 ft 156 kts 54°
2026-04-14 00:19 -42.72789 170.95004 582 ft 142 kts 57°
2026-04-14 00:19 -42.72275 170.96122 489 ft 138 kts 54°
2026-04-14 00:20 -42.71749 170.97179 313 ft 137 kts 54°
2026-04-14 00:20 -42.71221 170.98275 135 ft 131 kts 54°
2026-04-14 00:20 -42.70847 170.99064 126 ft 42 kts 57°
2026-04-14 00:20 -42.70772 170.99260 125 ft 16 kts 64°
2026-04-14 00:21 -42.70751 170.99232 123 ft 16 kts 225°
2026-04-14 00:21 -42.70865 170.99010 125 ft 29 kts 240°
2026-04-14 00:21 -42.70975 170.98783 122 ft 28 kts 237°
2026-04-14 00:21 -42.71079 170.98566 128 ft 27 kts 238°
2026-04-14 00:22 -42.71160 170.98492 125 ft 16 kts 154°
2026-04-14 00:22 -42.71249 170.98545 126 ft 12 kts 194°
2026-04-14 00:22 -42.71335 170.98515 124 ft 10 kts 212°
2026-04-14 00:22 -42.71357 170.98451 119 ft 5 kts 183°
2026-04-14 00:23 -42.71368 170.98467 122 ft 0 kts 109°